Regional Weather Roundup
Issued by NWS

Home | Current Version | Previous Version | Graphics & Text | Print | Product List | Glossary On
Versions: 1 2 3 4 5 6 7 8 9 10 11 12 13 14 15 16 17 18 19 20 21 22 23 24 25 26 27
000
ASUS45 KSLC 240410
RWRUT

UTAH REGIONAL WEATHER ROUNDUP
NATIONAL WEATHER SERVICE SALT LAKE CITY UT
1000 PM MDT MON APR 23 2018

UTZ001>011-023>025-240500-

NORTHERN UTAH

CITY           SKY/WX    TMP DP  RH WIND       PRES   REMARKS
BRIGHAM CITY   CLEAR     55  26  32 NW7       30.22R
HILL AFB       CLEAR     53  23  30 NE5       30.20R
LOGAN          CLEAR     44  35  70 N12       30.24R
OGDEN          CLEAR     52  26  36 NE9       30.19R
SALT LAKE CITY CLEAR     56  33  42 N9        30.17R
TOOELE VALLEY  CLEAR     41  32  70 SE5       30.20R
WENDOVER       CLEAR     57  19  22 NE12      30.20R
HEBER CITY       N/A     46  14  27 NE7       30.20R
WEST JORDAN    CLEAR     51  27  38 W9        30.20R

$$

UTZ011>015-024>027-240500-

CENTRAL/NORTHEAST UTAH

CITY           SKY/WX    TMP DP  RH WIND       PRES   REMARKS
PROVO AIRPORT  CLEAR     55  30  38 NW13      30.17R
MOAB/CANYONLAN CLOUDY    67  21  17 NW12      30.02R
DELTA          PTCLDY    54  21  28 NE22G28   30.14R
PRICE          MOCLDY    56  23  27 N10       30.15R
ROOSEVELT      CLOUDY    59   5  11 W9        30.15R
VERNAL         CLOUDY    57  15  19 NE10      30.14R

$$

UTZ013>016-019>022-027-240500-

SOUTHERN UTAH

CITY           SKY/WX    TMP DP  RH WIND       PRES   REMARKS
BRYCE CANYON   CLEAR     52  30  43 NW12      30.21R
CEDAR CITY     CLEAR     55  36  48 E5        30.10R
MILFORD        PTCLDY    58  34  40 MISG      30.11R
ST GEORGE      PTCLDY    73  20  13 SE7       29.93R
HANKSVILLE     CLOUDY    70  28  21 N9        30.07R
BLANDING         N/A     55  17  22 NW6       30.14S

$$

REGIONAL REPORTS     COLORADO/ARIZONA

CITY           SKY/WX    TMP DP  RH WIND       PRES   REMARKS
CRAIG, CO      MOCLDY    49  33  54 NW9       30.17R
GRAND JUNCTION CLOUDY    67  29  24 NW26G39   30.07R
RIFLE, CO      CLOUDY    64  21  19 NW29G37   30.12R
MONTROSE, CO   CLOUDY    65  23  20 NW21G30   30.11R
CORTEZ, CO     PTCLDY    52  16  24 E8        30.09R
COLORADO CITY    N/A     55  27  33 SE3       30.09R
PAGE, AZ       PTCLDY    74  18  12 SW3       29.99R
GRAND CANYON   CLEAR     45  14  28 CALM      30.18R
KINGMAN, AZ    PTCLDY    69  21  16 S12       30.00R
FLAGSTAFF, AZ  CLEAR     54  18  24 SW7       30.22R

$$

REGIONAL REPORTS    NEVADA/IDAHO/WYOMING

CITY           SKY/WX    TMP DP  RH WIND       PRES   REMARKS
LAS VEGAS, NV  PTCLDY    83  20   9 SW6       29.88R
ELY, NY        CLEAR     52  12  20 N15       30.18R
ELKO, NV       CLEAR     49  20  31 E5        30.20R
POCATELLO, ID  CLEAR     42  36  79 E7        30.30R
BURLEY, ID     CLEAR     44  35  70 VRB6      30.27R
FORT BRIDGER,    N/A     39  20  46 NW7       30.30R WCI  34
EVANSTON, WY   CLEAR     38  23  55 N10       30.27R WCI  31
ROCK SPRINGS,  CLOUDY    33  25  72 NE21G28   30.30R WCI  21
KEMMERER, WY   CLEAR     36  23  60 N9        30.28R WCI  29

$$




USA.gov is the U.S. government's official web portal to all federal, state and local government web resources and services.